HELLAS-SAT 3

Last updated on Sept. 30, 2020, 5:50 a.m. UTC

1 42814U 17040A   20273.78105081  .00000135  00000-0  00000-0 0  9994
2 42814   0.0739  27.8330 0001008  81.7798 219.5491  1.00271579 11940
UTC
Height (km)
Latitude
Longitude
Inclination
Orbital Period
UTC large
Height (km)
Speed (km/s)
/
Latitude / Longitude
Inclination (degrees)
Orbital Period (minutes)
Azimuth
Elevation
Range (km)
Doppler Factor
iOS Compass Heading
iOS Angle

Next 30 passes for location: Hong Kong

Rise time Rise Azimuth (degrees) Set time Set Azimuth (degrees) Duration Max altitude (degrees)

No matching passes for this satellites